Tracking 35237 objects as of 4-Sep-2026
HD Live streaming from Space Station
objects crossing your sky now

GLOBAL-14

Track GLOBAL-14 now!
10-day predictions


NORAD ID: 49469
Int'l Code: 2021-106A
Launch date: November 18, 2021
Source: United States (US)
Launch site: Rocket Lab Launch Complex (RLLC)
Your satellite tracking list
Your tracking list is empty




NASA's NSSDC Master Catalog

Two Line Element Set (TLE):
1 49469U 21106A   26247.02666682  .00021315  00000-0  32022-3 0  9993
2 49469  42.0021 181.2745 0019089 219.5859 140.3593 15.54199483270381
Source of the keplerian elements: AFSPC